• In Netherlands
  • List of Countries
  • For 7 days
  • Water Temperature
  • Satellite Maps
  • Weather Map
  • Weather Widgets
  • user-avatar
    Login

    Hourly Weather Nashavar

    Today, 20 January, Saturday

    Time Temperature Precipitation Wind Pressure Humidity
    00:00 +13°C° 0 mm 3 mps 733 mmHg 12%
    01:00 +13°C° 0 mm 3 mps 733 mmHg 12%
    02:00 +12°C° 0 mm 3 mps 733 mmHg 12%
    03:00 +12°C° 0 mm 3 mps 732 mmHg 12%
    04:00 +12°C° 0 mm 3 mps 732 mmHg 12%
    05:00 +12°C° 0 mm 2 mps 732 mmHg 14%
    06:00 +12°C° 0 mm 2 mps 732 mmHg 14%
    07:00 +12°C° 0 mm 2 mps 732 mmHg 14%
    08:00 +12°C° 0 mm 2 mps 732 mmHg 14%
    09:00 +15°C° 0 mm 2 mps 732 mmHg 13%
    10:00 +18°C° 0 mm 2 mps 731 mmHg 11%
    11:00 +21°C° 0 mm 2 mps 732 mmHg 9%
    12:00 +23°C° 0 mm 2 mps 731 mmHg 9%
    13:00 +24°C° 0 mm 2 mps 731 mmHg 8%
    14:00 +25°C° 0 mm 2 mps 730 mmHg 7%
    15:00 +24°C° 0 mm 2 mps 730 mmHg 9%
    16:00 +23°C° 0 mm 1 mps 730 mmHg 11%
    17:00 +22°C° 0 mm 1 mps 730 mmHg 13%
    18:00 +20°C° 0 mm 1 mps 730 mmHg 13%
    19:00 +19°C° 0 mm 1 mps 730 mmHg 12%
    20:00 +18°C° 0 mm 1 mps 730 mmHg 12%
    21:00 +16°C° 0 mm 1 mps 730 mmHg 12%
    22:00 +16°C° 0 mm 1 mps 730 mmHg 12%
    23:00 +15°C° 0 mm 1 mps 730 mmHg 12%

    Tomorrow, 21 January, Sunday

    Time Temperature Precipitation Wind Pressure Humidity
    00:00 +15°C° 0 mm 1 mps 729 mmHg 14%
    01:00 +14°C° 0 mm 1 mps 729 mmHg 15%
    02:00 +14°C° 0 mm 2 mps 729 mmHg 17%
    03:00 +14°C° 0 mm 2 mps 729 mmHg 17%
    04:00 +13°C° 0 mm 2 mps 729 mmHg 17%
    05:00 +13°C° 0 mm 2 mps 728 mmHg 17%
    06:00 +13°C° 0 mm 1 mps 729 mmHg 16%
    07:00 +13°C° 0 mm 1 mps 729 mmHg 14%
    08:00 +13°C° 0 mm 1 mps 729 mmHg 13%
    09:00 +16°C° 0 mm 1 mps 730 mmHg 12%
    10:00 +20°C° 0 mm 1 mps 730 mmHg 10%
    11:00 +22°C° 0 mm 1 mps 730 mmHg 8%
    12:00 +23°C° 0 mm 1 mps 730 mmHg 8%
    13:00 +24°C° 0 mm 1 mps 730 mmHg 8%
    14:00 +25°C° 0 mm 1 mps 729 mmHg 7%
    15:00 +24°C° 0 mm 1 mps 729 mmHg 9%
    16:00 +23°C° 0 mm 1 mps 729 mmHg 12%
    17:00 +22°C° 0 mm 1 mps 729 mmHg 14%
    18:00 +20°C° 0 mm 1 mps 729 mmHg 14%
    19:00 +19°C° 0 mm 1 mps 729 mmHg 15%
    20:00 +16°C° 0 mm 1 mps 730 mmHg 15%
    21:00 +16°C° 0 mm 1 mps 730 mmHg 16%
    22:00 +15°C° 0 mm 1 mps 730 mmHg 16%
    23:00 +14°C° 0 mm 1 mps 730 mmHg 17%

    Day after tomorrow, 22 January, Monday

    Time Temperature Precipitation Wind Pressure Humidity
    00:00 +14°C° 0 mm 1 mps 729 mmHg 17%
    01:00 +14°C° 0 mm 1 mps 729 mmHg 17%
    02:00 +13°C° 0 mm 1 mps 729 mmHg 17%
    03:00 +13°C° 0 mm 1 mps 729 mmHg 17%
    04:00 +13°C° 0 mm 1 mps 728 mmHg 17%
    05:00 +12°C° 0 mm 1 mps 728 mmHg 17%
    06:00 +12°C° 0 mm 1 mps 728 mmHg 16%
    07:00 +12°C° 0 mm 1 mps 729 mmHg 16%
    08:00 +13°C° 0 mm 2 mps 729 mmHg 16%
    09:00 +15°C° 0 mm 1 mps 729 mmHg 14%
    10:00 +18°C° 0 mm 1 mps 729 mmHg 11%
    11:00 +21°C° 0 mm 1 mps 729 mmHg 9%
    12:00 +22°C° 0 mm 1 mps 729 mmHg 9%
    13:00 +23°C° 0 mm 1 mps 728 mmHg 9%
    14:00 +24°C° 0 mm 1 mps 728 mmHg 8%
    15:00 +23°C° 0 mm 1 mps 727 mmHg 10%
    16:00 +22°C° 0 mm 1 mps 727 mmHg 12%
    17:00 +21°C° 0 mm 1 mps 727 mmHg 15%
    18:00 +19°C° 0 mm 1 mps 727 mmHg 15%
    19:00 +18°C° 0 mm 1 mps 727 mmHg 16%
    20:00 +15°C° 0 mm 1 mps 728 mmHg 17%
    21:00 +15°C° 0 mm 1 mps 728 mmHg 17%
    22:00 +14°C° 0 mm 1 mps 728 mmHg 17%
    23:00 +14°C° 0 mm 1 mps 728 mmHg 18%

    23 January, Tuesday

    Time Temperature Precipitation Wind Pressure Humidity
    00:00 +13°C° 0 mm 1 mps 728 mmHg 17%
    01:00 +13°C° 0 mm 1 mps 728 mmHg 17%
    02:00 +13°C° 0 mm 2 mps 728 mmHg 17%
    03:00 +12°C° 0 mm 2 mps 728 mmHg 16%
    04:00 +12°C° 0 mm 2 mps 728 mmHg 16%
    05:00 +12°C° 0 mm 2 mps 728 mmHg 15%
    06:00 +12°C° 0 mm 2 mps 728 mmHg 15%
    07:00 +12°C° 0 mm 2 mps 728 mmHg 15%
    08:00 +12°C° 0 mm 2 mps 729 mmHg 15%
    09:00 +14°C° 0 mm 2 mps 729 mmHg 13%
    10:00 +16°C° 0 mm 2 mps 729 mmHg 12%
    11:00 +18°C° 0 mm 2 mps 730 mmHg 10%
    12:00 +19°C° 0 mm 2 mps 729 mmHg 10%
    13:00 +20°C° 0 mm 3 mps 729 mmHg 9%
    14:00 +21°C° 0 mm 3 mps 728 mmHg 9%
    15:00 +20°C° 0 mm 3 mps 728 mmHg 10%
    16:00 +20°C° 0 mm 2 mps 728 mmHg 12%
    17:00 +19°C° 0 mm 2 mps 727 mmHg 13%
    18:00 +17°C° 0 mm 2 mps 728 mmHg 14%
    19:00 +16°C° 0 mm 2 mps 728 mmHg 14%
    20:00 +15°C° 0 mm 2 mps 728 mmHg 15%
    21:00 +14°C° 0 mm 2 mps 728 mmHg 15%
    22:00 +13°C° 0 mm 2 mps 729 mmHg 16%
    23:00 +13°C° 0 mm 2 mps 729 mmHg 16%

    24 January, Wednesday

    Time Temperature Precipitation Wind Pressure Humidity
    00:00 +13°C° 0 mm 2 mps 728 mmHg 16%
    01:00 +12°C° 0 mm 2 mps 728 mmHg 16%
    02:00 +12°C° 0 mm 1 mps 728 mmHg 16%
    03:00 +11°C° 0 mm 1 mps 728 mmHg 16%
    04:00 +11°C° 0 mm 1 mps 727 mmHg 16%
    05:00 +11°C° 0 mm 1 mps 727 mmHg 17%
    06:00 +11°C° 0 mm 1 mps 728 mmHg 17%
    07:00 +11°C° 0 mm 1 mps 728 mmHg 17%
    08:00 +11°C° 0 mm 1 mps 729 mmHg 18%
    09:00 +13°C° 0 mm 1 mps 729 mmHg 15%
    10:00 +16°C° 0 mm 1 mps 729 mmHg 13%
    11:00 +19°C° 0 mm 1 mps 729 mmHg 10%
    12:00 +20°C° 0 mm 1 mps 729 mmHg 10%
    13:00 +21°C° 0 mm 1 mps 729 mmHg 10%
    14:00 +21°C° 0 mm 1 mps 728 mmHg 9%
    15:00 +21°C° 0 mm 1 mps 728 mmHg 11%
    16:00 +20°C° 0 mm 1 mps 728 mmHg 13%
    17:00 +20°C° 0 mm 1 mps 728 mmHg 15%
    18:00 +18°C° 0 mm 1 mps 728 mmHg 15%
    19:00 +16°C° 0 mm 1 mps 729 mmHg 16%
    20:00 +13°C° 0 mm 0 mps 729 mmHg 17%
    21:00 +14°C° 0 mm 1 mps 729 mmHg 17%
    22:00 +13°C° 0 mm 1 mps 729 mmHg 18%
    23:00 +13°C° 0 mm 1 mps 730 mmHg 18%

    25 January, Thursday

    Time Temperature Precipitation Wind Pressure Humidity
    00:00 +12°C° 0 mm 1 mps 729 mmHg 18%
    01:00 +12°C° 0 mm 1 mps 729 mmHg 18%
    02:00 +11°C° 0 mm 1 mps 729 mmHg 18%
    03:00 +11°C° 0 mm 1 mps 729 mmHg 18%
    04:00 +11°C° 0 mm 1 mps 728 mmHg 18%
    05:00 +11°C° 0 mm 1 mps 728 mmHg 17%
    06:00 +11°C° 0 mm 1 mps 729 mmHg 17%
    07:00 +11°C° 0 mm 1 mps 729 mmHg 17%
    08:00 +11°C° 0 mm 1 mps 729 mmHg 17%
    09:00 +13°C° 0 mm 1 mps 729 mmHg 15%
    10:00 +16°C° 0 mm 1 mps 729 mmHg 13%
    11:00 +19°C° 0 mm 1 mps 729 mmHg 10%
    12:00 +20°C° 0 mm 1 mps 729 mmHg 10%
    13:00 +21°C° 0 mm 1 mps 728 mmHg 9%
    14:00 +21°C° 0 mm 2 mps 727 mmHg 9%
    15:00 +21°C° 0 mm 1 mps 727 mmHg 11%
    16:00 +20°C° 0 mm 1 mps 727 mmHg 13%
    17:00 +20°C° 0 mm 1 mps 727 mmHg 14%
    18:00 +18°C° 0 mm 1 mps 728 mmHg 15%
    19:00 +16°C° 0 mm 1 mps 728 mmHg 15%
    20:00 +14°C° 0 mm 1 mps 728 mmHg 15%
    21:00 +14°C° 0 mm 1 mps 728 mmHg 16%
    22:00 +13°C° 0 mm 1 mps 729 mmHg 16%
    23:00 +13°C° 0 mm 1 mps 729 mmHg 17%
    Show more